Weather History for PADU - August, 2013

Change the Weather History Date:

Wednesday, August 21, 2013

  Actual Average Record
Temperature  
Mean Temperature 55 °F -  
Max Temperature 63 °F 58 °F 72 °F (1953)
Min Temperature 48 °F 45 °F 33 °F (1991)
Degree Days  
Heating Degree Days 10    
Growing Degree Days 5 (Base 50)    
Moisture  
Dew Point 49 °F    
Average Humidity 85    
Maximum Humidity 93    
Minimum Humidity 77    
Precipitation  
Precipitation 0.00 in - - ()
Sea Level Pressure  
Sea Level Pressure 30.06 in    
Wind  
Wind Speed 3 mph (South)    
Max Wind Speed 15 mph    
Max Gust Speed -    
Visibility 10 miles    
Events Fog , Rain    
Averages and records for this station are not official NWS values.
T = Trace of Precipitation, MM = Missing Value Source: NWS Daily Summary

Daily Weather History Graph

Daily Weather History Graph

Search for Another Location

Airport or City:

Trip Planner

Search our weather history database for the weather conditions in past years. The results will help you decide how hot, cold, wet, or windy it might be!

Date:

Astronomy

Aug. 21, 2013 Rise Set
Actual Time 7:55 AM AKDT 10:21 PM AKDT
Civil Twilight 7:16 AM AKDT 10:59 PM AKDT
Nautical Twilight 6:26 AM AKDT 11:49 PM AKDT
Astronomical Twilight 5:26 AM AKDT 12:48 AM AKDT
Moon 10:14 PM AKDT (8/21) 9:07 AM AKDT (8/21)
Length of Visible Light 15h 43m
Length of Day
14h 25m
Full, 99% of the Moon is Illuminated
Aug 21
Full
Aug 28
Last Quarter
Sep 5
New
Sep 12
First Quarter
Sep 19
Full

Hourly Weather History & Observations

Time (AKDT) Temp. Dew Point Humidity Pressure Visibility Wind Dir Wind Speed Gust Speed Precip Events Conditions
12:56 AM 50.0 °F 45.0 °F 83% 30.14 in 10.0 mi Calm Calm - N/A   Clear
1:56 AM 48.0 °F 45.0 °F 89% 30.14 in 10.0 mi Calm Calm - N/A   Clear
2:56 AM 48.9 °F 45.0 °F 86% 30.15 in 10.0 mi North 4.6 mph - N/A   Clear
3:56 AM 48.0 °F 45.0 °F 89% 30.14 in 10.0 mi Calm Calm - N/A   Mostly Cloudy
4:08 AM 48.2 °F 46.4 °F 93% 30.11 in 10.0 mi East 3.5 mph - N/A   Overcast
4:56 AM 48.0 °F 45.0 °F 89% 30.12 in 10.0 mi Calm Calm - N/A   Overcast
5:23 AM 48.2 °F 46.4 °F 93% 30.10 in 10.0 mi ENE 4.6 mph - N/A   Overcast
5:56 AM 48.0 °F 46.0 °F 93% 30.11 in 10.0 mi Calm Calm - N/A   Mostly Cloudy
6:56 AM 48.9 °F 46.0 °F 90% 30.10 in 10.0 mi South 3.5 mph - N/A   Overcast
7:35 AM 48.2 °F 46.4 °F 93% 30.09 in 6.0 mi Calm Calm - N/A   Overcast
7:56 AM 48.9 °F 46.0 °F 90% 30.09 in 6.0 mi Calm Calm - N/A   Overcast
8:00 AM 48.2 °F 46.4 °F 93% 30.07 in 6.0 mi Calm Calm - N/A   Mostly Cloudy
8:16 AM 48.2 °F 46.4 °F 93% 30.08 in 10.0 mi Calm Calm - N/A Fog Overcast
8:56 AM 48.9 °F 46.0 °F 90% 30.09 in 10.0 mi East 5.8 mph - N/A Fog Overcast
8:57 AM 48.2 °F 46.4 °F 93% 30.08 in 10.0 mi East 5.8 mph - N/A Fog Overcast
9:49 AM 50.0 °F 46.4 °F 87% 30.06 in 10.0 mi Calm Calm - N/A Fog Overcast
9:56 AM 50.0 °F 46.0 °F 86% 30.08 in 10.0 mi Calm Calm - N/A Fog Overcast
10:03 AM 50.0 °F 46.4 °F 87% 30.06 in 10.0 mi Calm Calm - N/A   Overcast
10:56 AM 50.0 °F 46.9 °F 89% 30.07 in 10.0 mi Calm Calm - N/A   Overcast
11:26 AM 51.8 °F 46.4 °F 82% 30.05 in 10.0 mi Calm Calm - N/A   Overcast
11:56 AM 51.1 °F 46.9 °F 86% 30.07 in 10.0 mi Calm Calm - N/A   Overcast
12:56 PM 51.1 °F 46.9 °F 86% 30.05 in 10.0 mi East 3.5 mph - N/A   Overcast
1:56 PM 55.0 °F 48.9 °F 80% 30.04 in 10.0 mi East 5.8 mph - N/A   Overcast
2:56 PM 55.9 °F 51.1 °F 84% 30.04 in 10.0 mi Calm Calm - N/A Rain Light Rain
3:56 PM 55.0 °F 51.1 °F 86% 30.04 in 10.0 mi Calm Calm - N/A   Overcast
4:56 PM 59.0 °F 53.1 °F 81% 30.04 in 10.0 mi Variable 6.9 mph - N/A   Overcast
5:56 PM 60.1 °F 54.0 °F 80% 30.03 in 10.0 mi Calm Calm - N/A   Overcast
6:56 PM 62.1 °F 55.0 °F 78% 30.02 in 10.0 mi SSW 12.7 mph - N/A   Overcast
7:33 PM 62.6 °F 55.4 °F 77% 30.00 in 10.0 mi SW 13.8 mph - N/A   Overcast
7:56 PM 62.1 °F 55.0 °F 78% 30.02 in 10.0 mi SSW 11.5 mph - N/A   Overcast
8:20 PM 60.8 °F 53.6 °F 77% 30.01 in 10.0 mi Calm Calm - N/A   Overcast
8:38 PM 60.8 °F 55.4 °F 82% 30.01 in 10.0 mi North 3.5 mph - N/A   Overcast
8:56 PM 61.0 °F 54.0 °F 78% 30.03 in 10.0 mi SSW 5.8 mph - N/A   Overcast
9:08 PM 62.6 °F 55.4 °F 77% 30.01 in 10.0 mi Calm Calm - N/A   Overcast
9:56 PM 60.1 °F 54.0 °F 80% 30.03 in 10.0 mi SSW 9.2 mph - N/A Rain Light Rain
10:52 PM 59.0 °F 53.6 °F 82% 30.02 in 10.0 mi SW 11.5 mph - N/A   Overcast
10:56 PM 59.0 °F 53.1 °F 81% 30.04 in 10.0 mi SW 13.8 mph - N/A   Overcast
11:34 PM 60.8 °F 53.6 °F 77% 30.02 in 10.0 mi SW 8.1 mph - N/A   Overcast
11:56 PM 61.0 °F 54.0 °F 78% 30.04 in 10.0 mi SW 15.0 mph - N/A   Overcast